Location: Cortada Guamacho
(10.5667°N, 67.0833°W)
Time: 03:24:09
(UTC+00:00)

SWIFT - Pass Details

Date: 08 July 2022
Orbit: 539 x 553 km, 20.6° (Epoch: 13 August)

Event Time Altitude Azimuth Distance (km) Brightness Sun altitude
Rises 00:49:27 0° 282° (WNW) 2,707 7.0 -26.0°
Reaches altitude 10° 00:52:03 10° 295° (WNW) 1,812 6.0 -26.5°
Maximum altitude 00:55:33 25° 351° (N) 1,124 4.2 -27.2°
Enters shadow 00:56:02 24° 3° (N) 1,141 4.1 -27.3°
